Location: Kalisz
(51.7636°N, 18.0893°E)
Time: 04:25:33
(UTC+01:00)

ISS - Pass Details

Date: 25 January 2019
Orbit: 403 x 411 km, 51.6° (Epoch: 21 February)

Event Time Altitude Azimuth Distance (km) Brightness Sun altitude
Rises 18:26:49 0° 229° (SW) 2,328 1.0 -18.8°
Reaches altitude 10° 18:28:59 10° 220° (SW) 1,472 -0.4 -19.2°
Enters shadow 18:31:39 34° 169° (S) 702 -2.7 -19.6°
